2020-05-13 00:07:26 r, 18.14m,0000000005Hz,0000092885c,0000000.202s, 021.9C,00002195
2020-05-13 00:17:26 r, 18.15m,0000000005Hz,0000094083c,0000000.204s, 021.9C,00002195
2020-05-13 00:27:26 r, 18.21m,0000000004Hz,0000099227c,0000000.215s, 021.5C,00002195
2020-05-13 00:37:26 r, 18.21m,0000000004Hz,0000099786c,0000000.217s, 021.5C,00002195
2020-05-13 00:47:26 r, 18.16m,0000000005Hz,0000094979c,0000000.206s, 021.2C,00002195
2020-05-13 00:57:26 r, 18.16m,0000000005Hz,0000094946c,0000000.206s, 021.2C,00002195
2020-05-13 01:07:26 r, 18.11m,0000000005Hz,0000091364c,0000000.198s, 020.9C,00002195
2020-05-13 01:17:26 r, 18.13m,0000000005Hz,0000092900c,0000000.202s, 020.9C,00002195
2020-05-13 01:27:26 r, 17.99m,0000000006Hz,0000081631c,0000000.177s, 020.6C,00002195
2020-05-13 01:37:26 r, 17.78m,0000000006Hz,0000067220c,0000000.146s, 020.6C,00002195
2020-05-13 01:47:26 r, 17.71m,0000000007Hz,0000063305c,0000000.137s, 020.6C,00002195
2020-05-13 01:57:29 r, 17.85m,0000000006Hz,0000071895c,0000000.156s, 020.3C,00002195
2020-05-13 02:07:26 r, 17.85m,0000000006Hz,0000072059c,0000000.156s, 020.3C,00002195
2020-05-13 02:17:26 r, 17.59m,0000000008Hz,0000056639c,0000000.123s, 019.9C,00002195
2020-05-13 02:27:26 r, 17.75m,0000000007Hz,0000065311c,0000000.142s, 019.9C,00002195
2020-05-13 02:37:26 r, 17.53m,0000000009Hz,0000053755c,0000000.117s, 019.6C,00002195
2020-05-13 02:47:26 r, 17.23m,0000000012Hz,0000040906c,0000000.089s, 019.6C,00002195
2020-05-13 02:57:26 r, 16.81m,0000000017Hz,0000027581c,0000000.060s, 019.6C,00002195
2020-05-13 03:07:26 r, 16.23m,0000000028Hz,0000016247c,0000000.035s, 019.6C,00002195
2020-05-13 03:17:27 r, 16.01m,0000000035Hz,0000013211c,0000000.029s, 019.9C,00002195
2020-05-13 03:27:26 r, 15.96m,0000000036Hz,0000012612c,0000000.027s, 019.9C,00002195
2020-05-13 03:37:26 r, 16.27m,0000000027Hz,0000016878c,0000000.037s, 019.9C,00002195
2020-05-13 03:47:27 r, 16.06m,0000000033Hz,0000013787c,0000000.030s, 019.9C,00002195
2020-05-13 03:57:26 r, 16.36m,0000000025Hz,0000018248c,0000000.040s, 019.9C,00002195
2020-05-13 04:07:26 r, 16.10m,0000000032Hz,0000014315c,0000000.031s, 020.3C,00002195
2020-05-13 04:17:26 r, 16.52m,0000000022Hz,0000021200c,0000000.046s, 020.3C,00002195
2020-05-13 04:27:26 r, 16.28m,0000000028Hz,0000016906c,0000000.037s, 020.3C,00002195
2020-05-13 04:37:26 r, 16.48m,0000000023Hz,0000020469c,0000000.044s, 020.3C,00002195
2020-05-13 04:47:26 r, 15.94m,0000000037Hz,0000012441c,0000000.027s, 020.3C,00002195
2020-05-13 04:57:26 r, 14.69m,0000000116Hz,0000003911c,0000000.008s, 020.6C,00002195
2020-05-13 05:07:29 r, 13.19m,0000000470Hz,0000000000c,0000000.000s, 020.6C,00002195
2020-05-13 05:17:26 r, 11.53m,0000002182Hz,0000000000c,0000000.000s, 020.6C,00002195
2020-05-13 05:27:28 r, 10.04m,0000008587Hz,0000000000c,0000000.000s, 020.9C,00002195
2020-05-13 05:37:27 r, 08.75m,0000028202Hz,0000000000c,0000000.000s, 020.9C,00002195
2020-05-13 05:47:26 r, 07.70m,0000074066Hz,0000000000c,0000000.000s, 020.9C,00002195
2020-05-13 05:57:26 r, 07.03m,0000138208Hz,0000000000c,0000000.000s, 021.2C,00002195
2020-05-13 06:07:26 r, 06.42m,0000240114Hz,0000000000c,0000000.000s, 021.2C,00002195
2020-05-13 06:17:26 r, 05.91m,0000386716Hz,0000000000c,0000000.000s, 021.2C,00002195
2020-05-13 06:27:26 r, 05.97m,0000362729Hz,0000000000c,0000000.000s, 021.2C,00002195
2020-05-13 06:37:26 r, 00.00m,0000540314Hz,0000000000c,0000000.000s, 021.5C,00002195
2020-05-13 06:47:26 r, 00.00m,0000562822Hz,0000000000c,0000000.000s, 021.5C,00002195
2020-05-13 06:57:28 r, 00.00m,0000562966Hz,0000000000c,0000000.000s, 022.2C,00002195
2020-05-13 07:07:26 r, 00.00m,0000563028Hz,0000000000c,0000000.000s, 022.8C,00002195
2020-05-13 07:17:26 r, 00.00m,0000563020Hz,0000000000c,0000000.000s, 023.2C,00002195
2020-05-13 07:27:27 r, 00.00m,0000563063Hz,0000000000c,0000000.000s, 023.2C,00002195
2020-05-13 07:37:26 r, 00.00m,0000563139Hz,0000000000c,0000000.000s, 023.5C,00002195
2020-05-13 07:47:26 r, 00.00m,0000563177Hz,0000000000c,0000000.000s, 024.1C,00002195
2020-05-13 07:57:26 r, 00.00m,0000563259Hz,0000000000c,0000000.000s, 024.8C,00002195
2020-05-13 08:07:26 r, 00.00m,0000563365Hz,0000000000c,0000000.000s, 025.1C,00002195
2020-05-13 08:17:27 r, 00.00m,0000563369Hz,0000000000c,0000000.000s, 025.4C,00002195
2020-05-13 08:27:26 r, 00.00m,0000563383Hz,0000000000c,0000000.000s, 025.7C,00002195
2020-05-13 08:37:26 r, 00.00m,0000563353Hz,0000000000c,0000000.000s, 025.4C,00002195
2020-05-13 08:47:26 r, 00.00m,0000563354Hz,0000000000c,0000000.000s, 024.8C,00002195
2020-05-13 08:57:26 r, 00.00m,0000563302Hz,0000000000c,0000000.000s, 024.4C,00002195
2020-05-13 09:07:27 r, 00.00m,0000563273Hz,0000000000c,0000000.000s, 024.4C,00002195
2020-05-13 09:17:27 r, 00.00m,0000563173Hz,0000000000c,0000000.000s, 023.8C,00002195
2020-05-13 09:27:26 r, 00.00m,0000563184Hz,0000000000c,0000000.000s, 023.5C,00002195
2020-05-13 09:37:26 r, 00.00m,0000563198Hz,0000000000c,0000000.000s, 023.5C,00002195
2020-05-13 09:47:27 r, 00.00m,0000563131Hz,0000000000c,0000000.000s, 023.2C,00002195
2020-05-13 09:57:26 r, 00.00m,0000563079Hz,0000000000c,0000000.000s, 022.8C,00002195
2020-05-13 10:07:26 r, 00.00m,0000563157Hz,0000000000c,0000000.000s, 023.2C,00002195
2020-05-13 10:17:27 r, 00.00m,0000563147Hz,0000000000c,0000000.000s, 023.2C,00002195
2020-05-13 10:27:29 r, 00.00m,0000563196Hz,0000000000c,0000000.000s, 023.2C,00002195
2020-05-13 10:37:27 r, 00.00m,0000563213Hz,0000000000c,0000000.000s, 023.2C,00002195
2020-05-13 10:47:27 r, 00.00m,0000563143Hz,0000000000c,0000000.000s, 023.2C,00002195
2020-05-13 10:57:29 r, 00.00m,0000563238Hz,0000000000c,0000000.000s, 023.2C,00002195
2020-05-13 11:07:27 r, 00.00m,0000563315Hz,0000000000c,0000000.000s, 024.1C,00002195
2020-05-13 11:17:27 r, 00.00m,0000563312Hz,0000000000c,0000000.000s, 024.4C,00002195
2020-05-13 11:27:27 r, 00.00m,0000563224Hz,0000000000c,0000000.000s, 024.1C,00002195
2020-05-13 11:37:27 r, 00.00m,0000563252Hz,0000000000c,0000000.000s, 023.8C,00002195
2020-05-13 11:47:27 r, 00.00m,0000563209Hz,0000000000c,0000000.000s, 023.8C,00002195
2020-05-13 11:57:27 r, 00.00m,0000563212Hz,0000000000c,0000000.000s, 023.8C,00002195
2020-05-13 12:07:27 r, 00.00m,0000563200Hz,0000000000c,0000000.000s, 023.8C,00002195
2020-05-13 12:17:27 r, 00.00m,0000563251Hz,0000000000c,0000000.000s, 023.8C,00002195
2020-05-13 12:27:27 r, 00.00m,0000563263Hz,0000000000c,0000000.000s, 023.8C,00002195
2020-05-13 12:37:27 r, 00.00m,0000563284Hz,0000000000c,0000000.000s, 024.1C,00002195
2020-05-13 12:47:27 r, 00.00m,0000563299Hz,0000000000c,0000000.000s, 023.8C,00002195
2020-05-13 12:57:27 r, 00.00m,0000563193Hz,0000000000c,0000000.000s, 023.5C,00002195
2020-05-13 13:07:27 r, 00.00m,0000563105Hz,0000000000c,0000000.000s, 023.5C,00002195
2020-05-13 13:17:27 r, 00.00m,0000563167Hz,0000000000c,0000000.000s, 023.2C,00002195
2020-05-13 13:27:27 r, 00.00m,0000563171Hz,0000000000c,0000000.000s, 023.5C,00002195
2020-05-13 13:37:27 r, 00.00m,0000563287Hz,0000000000c,0000000.000s, 023.5C,00002195
2020-05-13 13:47:27 r, 00.00m,0000563216Hz,0000000000c,0000000.000s, 023.5C,00002195
2020-05-13 13:57:27 r, 00.00m,0000563235Hz,0000000000c,0000000.000s, 023.5C,00002195
2020-05-13 14:07:29 r, 00.00m,0000563258Hz,0000000000c,0000000.000s, 023.5C,00002195
2020-05-13 14:17:27 r, 00.00m,0000563347Hz,0000000000c,0000000.000s, 023.8C,00002195
2020-05-13 14:27:27 r, 00.00m,0000563270Hz,0000000000c,0000000.000s, 023.8C,00002195
2020-05-13 14:37:29 r, 00.00m,0000563244Hz,0000000000c,0000000.000s, 023.8C,00002195
2020-05-13 14:47:27 r, 00.00m,0000563252Hz,0000000000c,0000000.000s, 023.8C,00002195
2020-05-13 14:57:27 r, 00.00m,0000563244Hz,0000000000c,0000000.000s, 024.1C,00002195
2020-05-13 15:07:27 r, 00.00m,0000563370Hz,0000000000c,0000000.000s, 024.1C,00002195
2020-05-13 15:17:27 r, 00.00m,0000563328Hz,0000000000c,0000000.000s, 024.4C,00002195
2020-05-13 15:27:27 r, 00.00m,0000563348Hz,0000000000c,0000000.000s, 024.4C,00002195
2020-05-13 15:37:27 r, 00.00m,0000563330Hz,0000000000c,0000000.000s, 024.4C,00002195
2020-05-13 15:47:27 r, 00.00m,0000563389Hz,0000000000c,0000000.000s, 024.4C,00002195
2020-05-13 15:57:27 r, 00.00m,0000563336Hz,0000000000c,0000000.000s, 024.1C,00002195
2020-05-13 16:07:27 r, 00.00m,0000563280Hz,0000000000c,0000000.000s, 024.1C,00002195
2020-05-13 16:17:27 r, 00.00m,0000563302Hz,0000000000c,0000000.000s, 023.8C,00002195
2020-05-13 16:27:27 r, 00.00m,0000563347Hz,0000000000c,0000000.000s, 024.1C,00002195
2020-05-13 16:37:27 r, 00.00m,0000563307Hz,0000000000c,0000000.000s, 024.1C,00002195
2020-05-13 16:47:27 r, 00.00m,0000563279Hz,0000000000c,0000000.000s, 023.8C,00002195
2020-05-13 16:57:27 r, 00.00m,0000563326Hz,0000000000c,0000000.000s, 023.8C,00002195
2020-05-13 17:07:27 r, 00.00m,0000563294Hz,0000000000c,0000000.000s, 023.8C,00002195
2020-05-13 17:17:27 r, 00.00m,0000563338Hz,0000000000c,0000000.000s, 023.8C,00002195
2020-05-13 17:27:27 r, 00.00m,0000563384Hz,0000000000c,0000000.000s, 023.8C,00002195
2020-05-13 17:37:27 r, 00.00m,0000563307Hz,0000000000c,0000000.000s, 023.8C,00002195
2020-05-13 17:47:27 r, 00.00m,0000563354Hz,0000000000c,0000000.000s, 023.8C,00002195
2020-05-13 17:57:29 r, 00.00m,0000563455Hz,0000000000c,0000000.000s, 023.5C,00002195
2020-05-13 18:07:27 r, 00.00m,0000563312Hz,0000000000c,0000000.000s, 023.8C,00002195
2020-05-13 18:17:27 r, 00.00m,0000563306Hz,0000000000c,0000000.000s, 023.8C,00002195
2020-05-13 18:27:27 r, 00.00m,0000563372Hz,0000000000c,0000000.000s, 023.5C,00002195
2020-05-13 18:37:27 r, 00.00m,0000563387Hz,0000000000c,0000000.000s, 023.8C,00002195
2020-05-13 18:47:27 r, 00.00m,0000563368Hz,0000000000c,0000000.000s, 023.5C,00002195
2020-05-13 18:57:27 r, 00.00m,0000496708Hz,0000000000c,0000000.000s, 023.5C,00002195
2020-05-13 19:07:27 r, 00.00m,0000416804Hz,0000000000c,0000000.000s, 023.5C,00002195
2020-05-13 19:17:27 r, 05.99m,0000358522Hz,0000000000c,0000000.000s, 023.5C,00002195
2020-05-13 19:27:27 r, 05.98m,0000361432Hz,0000000000c,0000000.000s, 023.5C,00002195
2020-05-13 19:37:27 r, 06.03m,0000345667Hz,0000000000c,0000000.000s, 023.2C,00002195
2020-05-13 19:47:27 r, 06.11m,0000322230Hz,0000000000c,0000000.000s, 023.5C,00002195
2020-05-13 19:57:27 r, 06.22m,0000292791Hz,0000000000c,0000000.000s, 023.5C,00002195
2020-05-13 20:07:28 r, 06.86m,0000159762Hz,0000000000c,0000000.000s, 023.5C,00002195
2020-05-13 20:17:27 r, 06.90m,0000154827Hz,0000000000c,0000000.000s, 023.5C,00002195
2020-05-13 20:27:29 r, 07.43m,0000095049Hz,0000000000c,0000000.000s, 023.5C,00002195
2020-05-13 20:37:27 r, 07.71m,0000073350Hz,0000000000c,0000000.000s, 023.5C,00002195
2020-05-13 20:47:27 r, 08.16m,0000048514Hz,0000000000c,0000000.000s, 023.2C,00002195
2020-05-13 20:57:28 r, 08.20m,0000046707Hz,0000000000c,0000000.000s, 023.5C,00002195
2020-05-13 21:07:27 r, 09.45m,0000014687Hz,0000000000c,0000000.000s, 023.5C,00002195
2020-05-13 21:17:27 r, 10.77m,0000004398Hz,0000000000c,0000000.000s, 023.5C,00002195
2020-05-13 21:27:27 r, 11.93m,0000001509Hz,0000000000c,0000000.000s, 023.5C,00002195
2020-05-13 21:37:27 r, 13.47m,0000000362Hz,0000000000c,0000000.000s, 023.5C,00002195
2020-05-13 21:47:27 r, 14.43m,0000000150Hz,0000000000c,0000000.000s, 023.5C,00002195
2020-05-13 21:57:27 r, 14.90m,0000000097Hz,0000004770c,0000000.010s, 023.5C,00002195
2020-05-13 22:07:28 r, 15.14m,0000000077Hz,0000005937c,0000000.013s, 023.5C,00002195
2020-05-13 22:17:27 r, 15.18m,0000000074Hz,0000006169c,0000000.013s, 023.5C,00002195
2020-05-13 22:27:27 r, 15.18m,0000000074Hz,0000006143c,0000000.013s, 023.5C,00002195
2020-05-13 22:37:27 r, 15.15m,0000000075Hz,0000006009c,0000000.013s, 023.5C,00002195
2020-05-13 22:47:27 r, 15.15m,0000000077Hz,0000005963c,0000000.013s, 023.5C,00002195
2020-05-13 22:57:27 r, 15.17m,0000000074Hz,0000006106c,0000000.013s, 023.5C,00002195
2020-05-13 23:07:27 r, 15.19m,0000000074Hz,0000006180c,0000000.013s, 023.8C,00002195
2020-05-13 23:17:29 r, 15.15m,0000000077Hz,0000006010c,0000000.013s, 023.8C,00002195
2020-05-13 23:27:28 r, 15.19m,0000000075Hz,0000006186c,0000000.013s, 024.1C,00002195
2020-05-13 23:37:27 r, 15.17m,0000000076Hz,0000006055c,0000000.013s, 024.1C,00002195
2020-05-13 23:47:27 r, 15.18m,0000000073Hz,0000006174c,0000000.013s, 024.1C,00002195
2020-05-13 23:57:27 r, 15.21m,0000000073Hz,0000006330c,0000000.014s, 024.4C,00002195
